Wind_Speed
14 13 13 12 11 10 10 9 9 9 9 9 9 10 10 11 11 12 14 17 18 18 19 20 21 21 22 22 23 23 24 24 25 26 26 27 27 28 28 28 28 28 28 28 27 27 26 26 26 25 24 25 26 27 28 29 30 32 32 33 34 33 32 32 35 40 42 42 41 41 38 36 36 36 35 34 33 33 35 37 38 37 36 36 36
16 16 16 15 15 15 15 15 14 15 15 15 15 14 15 15 15 15 16 18 19 19 21 21 22 22 23 23 23 24 25 25 26 26 27 28 28 28 29 29 30 31 31 32 32 31 32 32 32 31 30 30 30 30 29 28 28 29 30 32 34 35 33 32 33 35 38 39 39 39 37 35 35 36 36 35 35 36 38 39 41 41 41 41 40
18 19 19 19 19 19 19 19 18 18 19 20 20 19 19 20 20 20 20 21 21 21 22 23 23 24 23 24 25 25 26 26 26 27 27 27 28 28 28 29 30 31 31 32 33 33 34 35 36 36 35 35 35 34 34 33 32 31 31 31 32 33 33 34 34 34 36 38 38 39 38 35 34 34 35 35 35 35 37 38 40 41 42 42 42
20 20 20 21 21 21 22 22 21 21 21 22 23 23 23 23 23 23 22 23 23 23 23 24 25 25 24 25 25 26 27 27 27 27 27 28 28 28 29 29 30 31 31 31 32 32 33 34 35 35 34 35 36 36 35 35 35 34 35 34 34 34 33 33 34 34 35 37 39 40 40 39 36 34 34 35 35 34 35 37 36 36 38 39 39
22 21 20 20 22 23 24 23 24 23 23 24 24 25 25 25 24 24 23 24 24 23 25 26 26 25 25 26 26 27 27 27 27 28 28 28 29 29 30 30 31 31 32 32 32 32 33 34 35 35 34 35 36 36 35 35 34 34 34 35 35 35 34 34 34 33 33 35 37 38 38 39 38 36 35 35 36 36 36 38 37 36 37 38 38
21 20 20 20 22 23 23 24 25 26 26 25 24 25 26 26 26 25 25 25 24 24 24 25 26 26 26 26 26 27 27 27 28 28 28 29 29 30 31 31 32 32 33 33 33 33 34 35 35 35 34 34 35 35 35 35 34 34 33 34 34 34 35 35 35 34 35 37 38 39 39 39 38 37 36 35 36 36 37 38 38 38 39 41 42
19 18 19 21 21 20 21 24 26 27 26 23 22 24 25 26 27 26 26 26 26 25 25 25 25 25 26 26 26 26 27 27 27 27 28 28 29 29 30 31 32 32 33 33 33 34 34 34 35 35 34 33 33 33 33 33 32 31 31 31 31 31 32 33 33 33 34 36 37 38 39 39 39 39 38 37 37 37 36 36 37 37 38 40 40
20 19 19 20 19 18 21 25 25 24 23 21 21 22 23 24 25 25 25 25 26 26 26 26 25 25 25 25 25 26 26 27 26 26 27 27 27 28 29 29 30 31 32 32 32 32 33 32 33 33 32 32 31 30 30 29 28 28 28 27 25 24 26 28 30 31 32 34 35 35 36 37 38 38 37 35 34 36 36 36 38 38 38 38 39
21 21 20 21 19 19 23 25 22 21 21 22 23 24 23 23 23 23 23 23 23 24 24 24 25 25 25 25 25 25 25 26 25 25 25 26 26 26 27 27 28 29 30 31 31 31 31 30 30 30 30 30 29 27 26 25 25 26 26 26 25 25 25 26 27 27 29 31 33 33 33 35 35 35 34 32 33 35 36 36 37 37 38 39 39
22 20 20 21 21 21 23 22 19 20 22 23 24 25 25 24 24 24 24 23 23 22 22 23 23 24 24 25 25 25 25 24 24 23 23 23 23 24 25 26 27 27 28 29 29 29 28 28 28 28 28 27 25 24 24 25 26 27 26 27 28 28 28 29 29 28 28 30 32 32 32 33 34 34 35 34 34 35 36 36 38 38 37 37 36
22 21 20 21 21 21 20 18 18 20 22 24 25 25 24 25 26 26 26 25 25 24 23 23 23 23 24 25 25 25 25 24 23 23 22 21 21 21 23 25 25 26 26 26 26 25 24 23 23 23 23 23 24 25 27 29 31 32 31 30 30 29 28 30 31 32 32 33 35 35 36 37 36 35 34 34 33 34 35 35 36 36 35 34 33
23 22 21 22 22 21 20 21 23 24 25 26 26 26 26 27 27 27 27 27 26 25 25 25 25 24 24 25 25 25 25 25 24 23 22 21 19 19 21 23 24 25 24 24 23 24 24 23 22 21 20 22 24 26 29 31 31 31 30 30 30 29 28 27 27 28 30 31 33 34 35 37 37 36 35 34 34 34 35 36 35 33 32 30 29
23 23 23 23 22 22 22 24 26 26 26 27 27 28 29 30 29 28 28 28 27 26 26 26 26 26 25 26 26 26 26 26 24 23 21 20 19 19 20 22 23 25 25 24 25 28 29 30 30 29 28 28 29 30 30 31 30 29 29 29 30 30 30 29 28 27 28 29 31 33 33 33 34 34 33 33 33 33 34 36 35 33 32 30 30
24 23 23 21 20 21 23 25 26 27 28 28 29 30 31 30 29 29 28 28 28 28 28 27 27 26 26 27 28 28 28 27 25 23 21 20 19 20 21 23 25 27 28 28 30 31 31 31 32 31 31 31 31 31 30 29 29 29 30 31 32 32 32 32 31 30 29 29 31 33 33 32 32 31 30 30 31 32 34 35 36 35 35 35 36
22 21 20 19 19 22 24 25 27 29 31 31 31 31 30 30 29 29 29 29 29 29 29 28 28 28 28 28 28 29 28 26 25 24 22 21 20 21 23 25 28 29 30 31 31 32 32 32 30 29 30 30 29 29 28 27 27 28 29 30 31 32 32 32 31 30 30 30 30 31 32 32 33 33 33 32 32 33 34 35 36 37 38 39 39
20 19 19 20 21 23 25 27 30 32 31 30 30 30 30 30 31 31 31 30 30 29 28 28 28 29 28 28 28 29 29 27 26 26 24 22 21 21 24 26 27 28 29 28 28 28 29 28 27 27 28 29 29 27 22 20 21 24 26 27 27 28 29 30 28 27 27 29 29 30 31 31 31 32 32 33 34 36 37 38 39 38 38 38 38
19 18 19 22 24 26 28 30 32 31 29 29 30 30 31 31 31 31 30 30 29 28 28 28 28 28 28 28 28 29 30 29 28 27 25 22 20 20 23 24 25 26 26 26 25 24 23 21 21 23 24 26 26 22 17 16 19 21 22 24 25 27 29 29 27 27 28 29 30 31 32 32 31 31 30 29 28 28 28 30 30 29 29 29 29
19 19 22 25 27 29 31 31 30 29 29 30 31 32 31 31 30 29 28 28 28 28 27 28 28 28 28 28 28 30 32 30 27 26 24 20 18 19 21 23 24 24 24 24 22 20 19 19 19 20 23 25 24 21 17 17 18 19 22 24 26 28 28 27 26 26 27 27 30 32 33 34 34 34 33 33 32 30 28 27 26 26 26 26 27
20 22 25 28 29 31 31 31 30 30 31 32 32 32 31 30 29 28 27 27 28 28 27 28 29 28 28 28 28 29 30 28 25 22 21 17 16 18 20 22 24 23 23 23 21 18 17 18 19 19 21 22 22 19 16 14 15 19 23 24 25 25 25 24 24 26 26 26 27 28 31 32 33 34 34 35 36 36 34 33 31 31 31 31 31
23 24 27 29 31 32 33 32 31 31 31 32 31 30 30 29 28 27 27 27 27 28 27 27 29 29 27 27 27 26 25 25 22 19 17 15 14 17 19 22 23 23 23 21 19 17 17 18 20 21 19 16 16 15 13 13 17 22 24 24 24 24 24 24 26 27 27 26 25 24 25 26 26 28 30 32 33 34 34 33 32 31 31 30 30
27 28 30 32 33 34 33 32 31 31 30 30 30 30 28 27 27 27 27 26 26 27 26 26 27 27 25 24 24 22 21 20 19 17 16 15 15 16 19 21 22 22 21 19 18 19 20 18 18 19 17 13 13 14 15 19 21 23 24 24 24 24 23 26 28 28 28 28 28 26 25 23 21 21 22 23 24 25 27 27 26 25 24 24 24
31 31 33 34 34 34 33 31 29 29 29 29 29 28 27 25 25 25 25 25 25 25 25 24 24 25 23 22 21 21 19 18 17 17 16 16 17 17 18 20 20 19 20 20 19 20 21 20 18 18 17 15 16 18 20 22 23 24 26 26 25 26 27 29 31 31 31 32 31 31 30 28 27 25 23 21 19 17 17 19 20 21 21 22 23
34 34 34 35 34 33 31 29 27 27 28 27 26 26 26 26 25 24 24 24 24 23 23 22 22 22 22 21 20 19 18 16 15 16 16 16 18 18 18 19 18 16 18 20 18 16 17 18 19 19 18 19 20 22 23 24 25 27 29 29 29 30 32 33 34 34 34 34 34 34 33 31 30 29 27 25 23 21 20 20 21 23 25 25 26
36 35 35 34 32 30 28 27 27 26 25 23 23 25 26 25 24 24 23 22 22 23 22 21 20 20 21 21 20 18 16 14 13 15 16 17 18 18 17 17 15 13 16 17 16 15 16 18 19 19 18 18 21 24 25 27 29 30 30 30 30 31 32 34 34 34 35 34 33 33 32 31 28 27 26 25 25 26 26 27 28 29 30 31 32
35 35 34 32 30 29 28 27 25 23 21 21 23 25 24 23 24 24 23 21 22 23 22 20 19 21 22 22 20 18 16 15 15 15 15 15 16 16 14 14 13 12 14 16 15 15 15 15 16 15 14 16 20 24 26 27 27 28 28 29 29 30 30 30 30 30 30 29 28 27 27 25 23 23 23 23 24 25 26 27 29 30 32 34 35
34 33 32 31 30 28 27 25 23 21 21 23 26 26 23 24 25 24 22 22 22 22 21 21 22 22 21 20 20 20 19 19 18 16 13 12 14 13 12 13 12 11 12 12 12 11 11 12 13 13 15 18 22 24 26 26 27 28 28 28 27 27 26 26 25 25 25 24 24 24 25 24 24 24 24 25 26 27 27 28 29 30 31 32 33
33 32 31 30 29 27 24 23 22 22 25 28 29 26 23 23 24 23 23 24 24 23 23 22 22 21 21 21 22 22 22 21 21 17 12 10 12 12 13 15 16 15 15 15 14 13 13 14 15 17 19 22 24 26 28 29 29 28 27 26 25 24 23 22 22 22 23 23 24 25 25 25 25 26 26 25 26 25 25 26 27 28 28 28 29
31 31 30 30 29 25 23 24 25 28 30 31 29 25 22 23 24 24 24 25 24 24 23 22 21 21 22 22 23 23 24 24 22 19 14 13 13 13 14 18 21 21 20 21 21 20 19 19 20 21 23 26 28 30 30 29 27 26 26 25 23 21 20 19 19 19 19 20 21 21 21 21 21 21 21 21 21 21 21 21 22 24 25 25 26
31 31 31 30 29 27 27 28 29 31 32 31 28 24 22 22 23 24 23 22 22 22 22 23 23 23 22 22 22 24 25 26 24 22 20 18 17 17 18 21 22 21 20 21 23 23 23 23 24 25 28 30 31 31 28 26 25 25 24 23 21 19 18 16 15 16 17 18 19 20 20 20 20 20 21 22 22 22 21 21 21 22 23 24 25
32 32 31 31 31 30 30 30 30 30 30 29 27 24 23 21 21 21 22 22 20 20 21 22 22 22 22 23 23 23 24 25 25 26 26 23 19 19 21 21 18 16 17 21 22 23 23 25 27 29 30 30 29 27 25 25 24 24 23 21 20 18 16 14 13 15 16 17 18 20 20 21 21 21 21 22 22 21 20 20 20 21 22 23 24
32 31 31 31 30 30 29 29 29 29 28 26 23 23 24 24 23 23 22 20 19 19 19 19 20 20 21 23 23 23 24 26 26 26 26 22 18 18 20 18 14 12 15 20 23 23 25 27 29 29 28 26 24 23 23 22 22 22 22 21 20 19 16 15 15 16 17 18 18 18 18 19 19 19 19 20 21 21 20 20 20 21 22 23 24
30 30 30 30 29 28 28 27 26 26 24 23 22 23 24 25 27 26 23 20 18 18 18 18 18 18 18 19 20 22 24 25 24 23 21 19 18 18 17 14 12 12 15 20 24 26 27 28 27 26 24 22 21 21 21 20 21 22 22 22 21 20 18 17 17 17 17 16 15 14 14 15 16 16 16 17 18 19 19 20 20 20 20 22 23
29 29 29 28 27 26 24 24 23 23 23 22 22 22 22 24 27 28 25 21 19 18 17 16 16 16 17 17 18 19 20 20 19 18 17 15 15 15 15 14 13 13 15 20 23 25 25 25 24 23 22 20 20 20 20 20 21 22 22 22 22 21 20 19 19 18 16 15 14 13 14 14 14 15 16 17 18 20 21 21 21 20 20 21 22
27 26 25 24 22 21 21 21 22 22 22 21 21 21 22 24 25 25 24 23 22 21 19 17 15 16 17 17 16 16 16 16 16 16 15 13 13 15 17 18 17 17 17 19 21 23 23 23 22 22 21 20 20 20 21 21 21 21 22 22 21 21 20 19 18 17 17 16 15 14 14 14 14 15 16 18 19 21 22 22 22 21 20 21 21
25 24 22 20 18 19 21 22 21 20 19 19 20 21 22 22 22 21 21 22 23 23 21 19 18 18 17 16 14 14 15 16 15 15 14 12 12 15 19 19 19 19 19 20 21 21 21 20 21 21 21 20 20 20 21 21 21 21 21 21 21 20 19 18 17 16 16 16 16 15 14 15 15 16 18 20 22 23 23 22 21 20 20 20 21
24 22 20 18 18 20 22 22 21 19 19 20 20 20 20 19 19 20 20 21 21 21 20 20 20 19 16 14 13 15 16 16 15 14 14 13 12 14 17 17 17 18 18 18 18 18 18 19 19 20 20 20 20 20 20 20 21 21 21 20 20 19 18 17 16 15 15 16 16 15 15 16 16 17 19 21 21 22 20 18 16 16 16 17 19
23 20 19 18 19 20 21 21 20 20 19 19 19 18 18 19 19 19 20 19 18 18 19 20 20 19 17 14 15 17 17 14 9 8 9 9 9 10 12 12 13 15 15 15 15 16 17 18 19 19 19 19 19 19 20 20 21 21 20 19 19 18 17 16 15 14 14 15 15 15 16 17 17 18 19 21 20 18 16 14 14 13 12 12 15
20 18 18 19 19 19 20 20 21 20 19 18 18 18 18 18 18 18 18 17 17 18 18 18 19 19 17 17 18 19 18 13 7 4 3 4 5 7 9 11 13 14 14 14 15 17 18 18 18 18 18 19 19 19 20 20 21 20 19 18 17 16 15 15 14 13 13 14 15 15 16 17 17 17 18 18 17 15 13 13 13 12 11 12 14
19 19 19 19 18 18 19 20 21 20 19 18 18 18 18 17 17 17 18 18 18 18 17 17 18 17 17 18 19 20 19 15 11 8 7 7 7 8 10 13 14 14 14 15 17 18 18 18 18 18 18 18 18 19 20 20 20 19 17 17 16 15 14 14 13 13 13 13 14 14 15 16 16 16 16 16 15 13 10 11 11 10 11 12 11
20 20 20 19 18 18 19 19 20 20 20 19 18 18 17 17 17 18 18 17 16 16 16 16 17 17 16 17 18 18 19 17 14 11 11 11 11 11 11 13 14 14 15 17 19 19 19 19 19 18 18 17 17 18 18 18 18 17 16 16 16 15 14 14 14 13 13 12 12 13 14 14 14 15 14 13 12 10 8 7 7 8 10 11 10
20 20 21 20 18 18 18 18 19 20 20 19 18 17 17 17 17 17 16 15 15 15 15 16 17 16 16 16 16 16 16 14 12 11 13 13 12 11 11 11 13 14 16 17 19 20 20 20 19 18 18 17 16 16 16 16 16 16 15 15 15 15 14 13 13 12 12 12 11 11 12 12 13 13 13 12 10 9 7 6 6 7 7 8 9
19 21 21 20 19 18 18 19 19 19 19 19 18 18 18 18 18 18 16 15 15 15 15 17 17 17 17 16 14 13 13 12 11 12 13 12 12 12 12 13 15 16 17 19 20 21 21 20 19 18 17 16 15 15 15 15 15 15 15 15 14 14 13 12 11 11 11 12 11 11 11 11 11 12 12 11 11 9 7 6 6 6 6 7 8
19 20 21 20 20 19 19 19 19 19 19 19 19 19 19 19 18 17 16 15 14 15 16 18 18 17 17 15 14 13 13 12 12 13 13 13 13 13 13 14 15 16 17 18 18 18 19 18 18 16 15 14 14 14 14 15 15 15 14 14 14 13 13 12 11 11 11 12 11 11 11 10 11 11 11 11 11 10 9 8 8 8 8 8 9
19 20 20 20 20 19 19 19 20 20 19 19 19 19 19 18 17 16 15 14 14 15 17 18 18 17 17 16 15 14 14 13 13 13 13 13 13 13 14 14 15 15 16 16 15 15 16 16 15 14 13 12 12 13 13 13 14 14 14 14 14 14 14 13 12 12 12 12 12 12 11 11 11 11 11 12 12 11 11 10 10 11 11 11 13
18 20 20 20 20 20 19 19 20 20 19 19 19 19 18 17 16 15 15 15 15 16 17 17 17 17 17 16 15 15 14 14 14 13 13 13 13 13 13 13 14 14 14 14 14 14 14 14 14 13 12 11 11 12 12 13 13 14 14 15 15 15 14 13 13 13 13 13 13 13 12 12 12 12 12 12 13 13 13 12 13 13 14 15 16
17 19 19 19 19 20 19 19 20 20 19 19 20 19 18 18 17 16 16 16 16 17 17 17 16 17 17 16 16 15 14 14 14 14 13 13 13 13 13 13 13 14 14 13 13 13 13 13 13 13 12 11 11 11 12 12 13 13 14 14 14 14 14 13 13 13 12 13 14 14 14 13 13 13 13 13 14 14 14 15 15 16 16 17 18
16 17 17 18 18 19 19 20 20 20 19 19 19 19 18 18 18 17 17 16 16 16 16 16 17 17 17 16 15 15 14 14 14 14 14 13 13 13 13 13 13 13 13 12 12 12 12 12 12 12 12 13 12 12 12 12 12 13 13 13 14 14 14 14 14 13 13 13 13 14 14 14 14 14 14 14 15 16 16 16 17 17 18 19 20
15 16 16 17 18 19 20 20 21 20 19 19 19 18 18 18 18 17 17 17 17 16 17 17 17 17 17 16 15 15 14 14 14 14 14 13 13 13 13 13 14 14 13 13 12 12 12 12 13 13 13 13 13 13 13 13 13 13 14 14 14 14 14 14 14 13 13 12 12 12 13 13 13 14 14 15 15 16 17 18 18 18 19 19 19
15 15 16 17 18 19 20 20 20 20 19 19 18 18 17 18 18 18 18 17 17 17 17 18 18 17 16 16 15 15 14 14 14 14 14 14 14 14 14 14 14 14 14 13 13 13 13 13 13 14 14 14 14 14 14 14 14 14 14 14 14 14 14 14 14 14 13 13 12 12 12 12 12 13 13 14 15 16 17 17 18 18 18 18 18
15 15 16 17 18 19 19 19 19 19 19 19 19 19 18 18 18 18 18 18 18 18 17 17 16 16 16 16 15 15 15 15 15 15 15 15 14 14 14 14 13 13 13 14 14 14 14 15 15 15 15 15 15 15 14 14 14 14 14 14 14 14 14 14 13 13 14 14 13 12 12 12 12 12 12 12 13 14 15 15 16 16 16 17 17
16 16 17 17 18 18 19 19 20 20 19 19 19 19 19 19 19 18 18 18 18 17 17 16 16 16 16 16 16 16 16 16 16 16 16 15 15 15 14 14 14 14 15 15 15 15 15 15 15 15 15 14 14 14 14 13 14 14 14 14 14 13 13 13 13 13 13 14 14 14 13 13 13 13 12 12 13 14 14 15 15 16 16 16 17
Wind_Direction
21 17 12 10 3 358 354 350 344 335 325 316 312 307 299 293 287 283 281 278 277 277 275 273 271 270 269 267 266 265 263 260 258 256 254 252 250 249 248 247 245 244 243 242 241 240 241 242 243 245 247 251 253 254 255 254 254 253 252 253 254 253 256 260 263 266 268 269 270 271 271 271 268 264 263 263 263 264 268 273 275 273 267 263 262
1 358 354 351 347 345 341 338 337 334 327 321 317 315 311 306 300 296 293 289 288 286 283 281 279 276 275 273 272 270 268 267 265 263 261 260 258 256 254 253 252 251 249 248 247 246 246 246 247 248 249 251 252 253 253 253 252 253 253 253 254 253 253 257 263 267 269 269 270 272 272 271 269 268 264 260 259 260 265 270 271 269 266 264 263
349 346 343 341 338 336 333 331 331 330 328 323 319 316 315 313 308 305 303 298 296 293 290 287 284 282 280 278 276 274 273 272 270 269 268 266 265 263 261 259 258 258 256 256 255 254 254 254 254 255 256 256 256 255 255 254 253 254 254 254 256 256 255 256 261 266 270 270 270 271 272 272 270 270 268 265 262 262 265 268 268 267 265 264 265
341 340 338 336 333 331 330 328 327 327 327 324 320 318 316 314 312 309 307 302 299 297 294 290 287 286 284 282 279 277 276 275 274 273 272 271 270 269 268 266 264 264 263 263 262 261 261 262 262 263 262 262 262 262 261 260 260 259 259 258 257 259 261 261 262 266 270 271 270 269 270 271 271 270 271 270 266 264 265 266 266 267 266 266 268
335 334 334 334 332 330 328 326 325 326 327 326 322 318 317 315 313 311 308 303 300 298 294 291 289 288 286 283 281 280 278 277 276 275 274 273 273 273 272 271 269 269 269 268 268 268 268 268 268 269 269 269 270 270 269 269 268 267 266 265 263 262 262 262 261 263 266 268 269 269 269 271 272 271 270 269 268 268 264 260 261 265 267 269 269
331 331 330 332 332 328 325 323 323 322 322 323 321 318 317 315 314 312 308 304 302 298 293 291 291 289 286 284 282 281 280 278 277 277 276 275 274 273 273 272 272 272 271 271 271 271 271 271 271 272 272 273 273 273 274 274 273 272 270 268 266 264 263 262 262 263 264 265 266 267 268 269 271 270 268 267 268 269 266 261 262 265 267 267 267
332 333 328 331 334 326 318 321 321 320 321 320 317 316 315 313 312 311 309 306 303 300 295 293 292 290 288 286 284 283 281 280 280 279 278 277 276 276 275 274 273 272 272 272 271 271 271 271 271 271 272 273 273 274 274 274 274 274 273 273 273 273 272 272 271 271 271 270 269 269 269 269 269 269 269 268 267 265 263 265 268 268 267 266 265
332 334 324 328 334 321 314 320 322 320 320 318 316 316 313 309 308 307 305 303 301 300 298 296 294 292 291 289 288 287 285 284 284 283 282 281 280 279 278 277 276 275 274 273 273 273 273 272 272 272 272 273 272 272 272 274 275 274 273 273 274 277 279 280 279 276 274 272 271 271 271 270 271 272 271 268 263 261 262 267 271 269 268 267 267
327 331 322 323 328 317 314 321 322 316 315 315 316 317 315 312 309 306 303 301 298 297 297 296 295 293 292 291 290 289 288 287 288 287 286 285 284 283 282 281 280 278 277 277 276 276 275 275 274 273 273 273 272 271 272 273 271 268 266 263 262 267 273 277 279 277 274 273 272 272 272 269 269 270 268 263 262 266 269 270 269 269 269 269 269
320 323 316 317 320 316 317 322 320 313 312 313 314 315 315 314 312 311 309 307 304 303 300 297 296 296 295 293 292 291 290 289 290 289 288 289 288 286 283 281 281 281 281 280 279 279 280 281 280 279 278 277 273 267 263 259 256 255 259 262 264 267 269 270 272 273 273 273 273 273 273 271 270 268 266 266 268 271 272 270 269 269 267 265 263
316 315 310 311 314 313 313 312 305 301 304 307 308 308 308 309 310 311 311 310 310 309 306 303 302 300 298 296 295 294 293 292 292 291 290 290 288 286 285 285 284 284 284 284 285 287 287 284 283 284 284 278 271 263 258 255 255 257 261 266 269 271 273 272 273 273 273 273 272 272 273 272 271 270 268 269 270 270 270 270 268 264 260 257 256
315 311 307 307 306 303 298 293 291 292 296 299 300 301 301 304 307 308 307 307 308 307 306 305 305 303 301 299 298 297 296 295 295 295 294 292 291 291 290 289 287 285 283 282 282 279 273 267 265 267 267 264 261 261 262 262 263 264 266 270 272 274 275 275 275 275 275 275 275 274 273 272 271 269 269 270 270 269 269 266 262 258 255 253 255
313 308 305 303 300 294 289 289 290 292 295 296 297 299 300 303 306 305 305 305 306 305 305 305 305 303 302 301 300 300 299 298 298 298 298 296 294 293 289 283 280 279 276 273 269 266 264 264 263 261 259 259 262 266 269 270 268 267 269 273 276 278 279 279 277 275 273 272 272 272 272 273 273 272 271 270 269 267 266 264 260 255 253 254 256
311 307 304 300 293 286 285 289 292 295 297 298 299 300 302 304 305 305 306 306 305 305 305 304 303 301 300 300 301 300 300 300 301 303 303 299 295 293 286 276 270 267 265 263 262 263 265 269 271 271 269 268 268 271 273 273 273 273 275 277 280 282 284 283 281 278 275 272 270 271 271 270 270 270 270 270 268 266 266 265 261 257 257 260 262
311 308 303 293 282 280 284 290 295 298 300 301 302 303 305 306 306 306 306 305 304 304 303 302 301 299 299 300 300 299 299 302 304 306 306 302 297 293 285 276 272 271 269 268 266 266 266 267 269 272 274 275 277 278 278 277 277 278 281 283 285 285 284 282 282 282 281 278 275 276 276 273 271 270 269 267 266 266 267 267 266 264 264 265 266
311 307 296 283 277 280 287 293 298 301 303 303 304 305 306 307 306 306 306 304 303 302 301 301 300 300 302 303 302 301 301 304 307 307 305 303 300 295 288 284 283 282 281 279 276 273 271 269 268 269 273 278 281 280 278 278 283 287 289 291 290 288 285 283 283 282 281 281 279 277 277 276 276 275 273 271 270 269 268 267 266 265 263 264 265
314 305 288 280 282 287 293 299 303 306 306 304 304 305 307 306 305 305 305 303 302 301 301 301 300 301 302 303 301 300 301 304 306 305 305 305 303 297 292 291 290 288 287 286 284 282 279 275 272 274 278 279 276 273 275 283 288 287 286 286 285 284 284 284 284 282 279 278 276 272 270 269 270 271 270 269 269 269 268 265 263 263 264 264 266
314 299 286 287 291 295 300 304 307 307 305 303 304 306 307 306 305 305 303 301 301 300 299 298 297 297 298 298 297 298 300 304 306 305 304 305 303 297 295 295 294 292 291 289 287 286 284 281 275 272 273 272 270 272 280 284 283 282 284 288 288 288 291 293 291 288 284 281 276 271 267 265 265 266 266 264 264 266 272 274 273 275 276 275 274
309 297 292 294 296 299 304 306 305 305 303 303 306 307 308 307 306 305 303 301 300 299 297 297 296 297 298 298 298 299 300 303 305 306 305 304 300 296 295 294 294 292 291 287 284 281 278 277 274 268 266 267 272 277 279 277 286 295 297 296 292 291 295 297 293 289 288 286 283 280 277 272 270 270 269 267 264 264 269 274 276 279 281 280 280
306 299 296 297 298 302 306 306 305 305 304 305 307 307 308 307 306 305 304 302 302 301 301 300 299 300 301 300 300 301 303 305 307 308 306 302 299 297 295 295 294 293 291 287 284 281 279 278 274 269 266 270 273 273 270 277 295 301 296 290 289 292 296 294 288 285 285 285 285 285 285 282 279 276 273 272 271 269 270 272 275 278 280 280 281
306 302 300 300 303 306 308 308 307 306 304 306 308 308 309 308 307 307 306 305 305 303 302 302 301 301 302 303 303 305 309 311 313 314 309 303 301 300 297 295 294 294 294 290 285 284 283 280 272 264 262 264 263 263 272 286 295 294 289 288 291 292 292 290 287 286 285 285 285 284 283 280 277 276 274 274 277 277 276 276 276 277 277 278 280
310 308 307 307 309 310 310 310 308 306 306 308 309 309 310 311 311 311 309 308 307 305 304 305 305 306 308 309 310 313 316 316 315 314 308 301 301 302 300 297 296 296 294 290 284 281 277 272 266 259 255 257 262 271 282 289 290 286 286 288 289 286 284 286 288 289 289 289 290 288 286 283 280 278 275 270 268 268 271 274 274 272 272 274 278
314 314 313 313 313 313 312 311 308 306 308 310 311 311 313 314 315 314 313 312 311 309 309 309 308 307 308 309 309 310 311 311 310 307 301 298 302 305 303 300 298 294 290 285 278 269 263 260 258 256 259 265 271 278 283 284 285 287 289 289 287 285 286 287 289 290 291 291 291 290 288 287 285 283 281 275 268 261 259 263 268 270 270 272 274
317 317 316 315 315 314 312 311 309 309 311 312 310 312 313 314 315 316 316 314 311 310 310 310 306 303 302 303 305 306 305 303 298 295 296 301 306 308 307 304 299 291 289 287 279 266 259 260 263 268 275 278 276 277 280 282 286 290 292 291 290 290 290 289 289 289 289 289 289 288 287 287 285 282 281 279 275 270 266 265 267 268 268 269 270
317 317 317 316 316 315 313 311 311 312 310 307 309 313 314 311 312 315 314 311 309 310 311 308 303 299 299 302 303 302 297 291 285 283 291 304 311 312 312 311 307 299 294 294 291 283 278 277 278 278 278 278 277 281 287 291 295 296 296 297 297 295 294 292 291 289 288 288 288 288 287 286 283 279 275 272 270 268 267 267 267 267 269 270 271
317 317 317 316 316 315 314 314 314 309 303 304 311 314 309 303 306 310 310 308 308 307 306 303 300 299 298 297 295 292 290 289 286 284 289 305 311 310 311 310 306 300 294 290 288 283 275 270 267 265 269 278 287 295 300 302 303 303 303 302 301 298 296 294 291 290 288 286 284 281 278 275 271 268 265 262 262 263 264 266 268 269 271 273 274
317 316 316 316 316 317 315 312 308 303 300 306 313 313 306 301 303 305 305 306 306 305 304 304 301 298 295 292 291 291 289 290 291 289 287 293 298 299 303 303 296 290 284 279 275 270 265 264 266 271 279 289 297 303 306 306 306 305 304 303 302 300 297 294 290 287 285 284 282 279 277 276 274 273 272 271 271 271 271 271 272 272 272 274 277
316 315 315 316 316 315 311 305 303 302 304 310 315 312 305 300 299 300 303 305 306 307 308 307 303 298 296 294 294 294 292 292 294 290 280 273 276 285 300 301 296 293 289 282 278 275 274 276 278 283 290 297 303 306 307 306 305 303 303 304 303 302 299 294 290 288 288 288 288 288 288 288 285 282 281 279 277 276 274 272 272 272 272 273 276
314 314 315 315 314 312 308 306 305 306 308 312 313 308 300 295 296 300 303 304 304 303 302 301 300 299 299 297 295 296 295 294 294 290 283 275 273 285 299 298 293 292 289 281 278 278 280 283 287 293 299 303 306 308 306 303 301 301 302 304 306 304 301 297 296 296 294 289 285 284 284 284 281 280 280 279 277 276 276 275 274 274 273 274 275
314 314 314 313 312 311 310 309 309 309 311 314 313 307 300 296 296 299 302 302 301 298 294 293 294 295 296 294 293 292 291 291 291 290 289 286 282 290 299 294 285 283 283 277 275 277 282 288 294 300 304 306 306 304 301 299 300 300 302 305 307 305 301 297 294 291 288 285 283 281 279 277 276 276 277 278 279 278 278 278 276 274 274 275 276
315 315 315 314 314 314 313 312 312 312 315 316 312 305 301 298 298 302 306 305 302 298 296 293 292 292 291 291 290 288 286 286 287 287 289 290 289 293 297 292 281 276 278 279 278 281 288 295 300 304 305 304 300 297 296 296 297 298 301 304 305 304 300 292 286 284 285 286 288 288 288 286 284 283 283 284 285 285 284 281 278 275 272 270 272
318 318 318 318 319 318 317 316 316 316 317 315 309 304 300 300 304 309 312 309 303 301 300 298 297 297 295 293 293 290 288 288 290 292 294 295 294 293 292 288 280 271 274 280 285 289 294 299 302 304 303 299 295 293 293 293 293 296 301 303 303 303 299 291 289 292 296 297 298 301 303 301 298 296 294 292 291 289 287 284 282 281 278 275 272
322 322 322 322 322 322 321 319 317 315 313 312 310 306 302 303 308 313 315 313 309 306 305 304 303 303 301 297 295 296 298 299 298 298 296 294 295 294 285 275 270 271 278 286 290 294 298 300 302 303 301 298 295 292 290 292 295 299 302 303 303 304 300 295 292 293 294 297 300 301 302 300 297 295 293 291 290 288 286 285 283 280 280 280 278
328 327 327 327 325 322 320 318 315 312 311 310 308 305 303 305 310 314 316 315 313 313 313 313 312 309 306 305 306 310 312 309 305 302 297 291 291 290 281 272 271 275 281 287 289 292 297 299 299 300 299 296 294 293 294 298 302 304 305 306 306 306 303 299 295 290 289 293 296 297 301 303 302 303 305 304 300 295 290 286 282 277 276 277 279
333 331 332 334 327 319 319 323 324 323 318 313 310 307 307 311 314 315 314 313 313 315 317 318 317 315 316 320 320 314 307 302 302 305 302 294 290 290 286 282 282 283 283 285 287 290 294 295 294 296 297 297 297 298 301 305 307 307 308 309 308 307 305 303 298 289 285 288 290 293 300 303 305 310 313 312 309 304 298 291 282 274 269 270 274
335 335 337 337 327 319 323 331 334 330 321 316 315 314 315 316 314 311 310 311 314 316 317 315 317 322 327 328 317 306 302 301 303 308 308 300 291 291 293 292 291 290 289 291 292 292 291 291 292 295 297 298 300 303 305 307 308 309 310 310 309 307 305 305 303 295 287 286 287 290 295 298 303 311 314 315 315 312 307 302 293 281 271 267 269
338 338 336 332 325 323 328 335 335 330 325 323 323 321 317 314 311 311 312 315 317 316 314 314 320 328 333 328 316 314 318 316 308 315 320 303 279 283 295 295 293 296 299 298 295 293 293 294 297 298 299 302 305 306 307 308 308 309 310 310 310 309 307 306 304 298 290 286 285 287 291 294 301 310 314 317 318 315 314 316 309 295 283 279 280
341 339 333 328 326 328 332 336 337 335 332 328 324 320 317 316 316 316 316 316 315 314 314 319 326 330 330 325 320 324 330 326 304 283 289 269 258 281 299 298 299 304 305 298 294 295 299 301 302 301 303 305 307 307 307 307 307 309 311 312 312 311 310 310 307 301 295 289 284 285 287 291 298 307 314 317 317 314 321 331 324 306 296 296 293
343 340 336 334 332 331 333 336 337 336 333 328 325 325 325 324 322 320 318 317 317 317 320 325 330 331 328 325 326 331 335 333 324 303 286 279 280 291 300 301 302 304 301 295 295 300 304 305 305 305 306 307 306 306 306 307 309 312 314 315 314 313 313 313 312 308 303 294 286 284 285 288 295 304 312 318 317 309 315 338 339 315 294 288 285
346 344 343 342 337 333 334 336 337 335 333 333 332 331 330 327 325 324 325 324 324 325 327 329 332 333 330 328 329 331 330 331 333 323 307 300 296 295 300 305 304 301 299 297 299 303 307 308 308 307 306 307 307 307 308 310 312 314 315 313 312 312 313 314 313 310 306 299 292 287 286 288 294 300 307 318 323 314 308 323 330 307 282 272 272
351 349 348 346 342 339 339 338 335 334 336 338 338 335 334 334 334 334 335 333 330 329 332 334 335 336 333 329 328 328 326 326 326 319 312 310 306 297 294 293 292 293 295 296 299 306 310 310 308 307 308 309 311 310 310 311 311 312 312 312 312 312 313 314 312 310 306 301 295 291 288 289 293 299 306 316 323 321 311 303 304 303 293 285 283
354 352 350 351 351 348 344 340 338 339 342 345 345 345 344 344 343 341 340 338 335 335 337 338 338 338 336 334 332 331 328 324 319 314 311 311 306 296 288 285 286 289 292 296 302 308 309 307 307 310 312 314 313 311 310 311 312 312 313 315 314 314 315 315 313 310 306 302 298 294 290 288 290 296 304 310 314 317 317 310 307 307 302 298 302
356 354 353 356 355 351 347 345 345 348 350 350 350 351 350 347 345 344 342 340 340 341 340 340 340 340 340 340 339 336 333 330 327 323 320 316 312 308 303 300 299 299 300 303 307 308 306 307 310 313 313 313 312 310 309 310 312 313 314 314 314 314 315 314 312 309 305 303 300 296 291 288 289 293 298 302 304 306 308 308 307 305 303 308 316
356 354 355 357 356 354 353 353 352 352 353 353 353 353 352 349 348 348 345 343 344 344 342 341 341 342 343 344 344 342 340 337 335 333 329 325 323 320 316 313 311 310 310 312 312 310 309 311 313 314 314 313 311 309 309 310 311 312 314 315 316 317 317 315 313 310 307 305 303 298 292 286 284 286 291 295 298 301 303 304 305 306 309 313 317
354 353 356 357 357 357 358 358 356 355 355 356 355 355 355 354 353 352 350 348 347 345 343 343 345 346 346 347 346 344 343 341 339 337 334 331 328 326 324 322 321 320 320 320 319 316 315 315 316 317 319 317 314 312 312 313 314 316 317 318 318 319 319 318 315 313 310 306 302 298 292 286 283 284 286 290 293 297 300 302 305 308 310 313 315
351 352 356 357 358 359 360 359 358 358 357 356 355 355 357 358 357 355 354 352 350 346 345 346 348 348 347 346 346 344 342 341 339 338 336 334 333 332 332 331 329 327 327 327 325 322 322 322 322 323 324 323 322 321 320 320 320 321 321 321 320 321 324 324 323 322 319 313 307 301 294 288 285 285 287 290 292 294 297 300 303 307 309 310 312
349 353 357 358 360 1 1 0 359 358 357 357 356 356 357 358 357 356 356 355 352 349 347 347 347 347 346 345 344 344 343 342 342 341 340 338 337 337 336 335 334 334 335 335 333 332 331 330 330 330 330 329 328 326 324 323 322 321 319 318 318 320 322 322 322 322 320 316 311 305 298 292 288 287 288 289 290 292 294 297 300 303 305 306 308
353 356 0 3 4 3 2 1 360 358 358 359 358 358 359 358 357 356 356 355 353 350 348 348 347 347 346 347 347 348 348 347 346 345 344 343 342 342 341 341 341 341 343 345 344 342 340 339 336 334 331 329 326 324 321 319 317 316 315 314 313 313 312 311 310 311 311 311 309 306 302 297 293 291 291 290 291 292 294 296 298 300 301 302 304
3 5 6 7 7 4 3 2 1 2 2 2 1 1 2 1 359 358 356 355 354 353 351 350 350 349 350 351 353 354 353 352 351 350 350 350 349 349 349 350 350 350 350 351 350 346 342 337 332 328 325 323 321 320 318 317 315 314 313 311 309 307 304 302 301 301 300 301 302 302 300 297 295 292 291 290 290 291 292 294 296 298 299 301 304
14 13 11 10 8 7 7 7 6 6 6 5 4 4 4 2 1 359 357 355 356 356 355 354 354 355 356 357 358 358 358 357 357 357 357 357 357 357 358 357 357 355 352 348 344 339 334 329 326 324 323 322 320 319 318 318 317 315 314 312 310 307 303 299 297 294 293 293 293 293 292 292 292 291 290 290 290 290 291 294 296 298 300 302 305
18 17 15 14 12 10 9 9 7 6 4 3 2 2 1 1 0 359 358 358 359 0 0 1 3 4 4 4 4 4 4 3 3 4 3 1 1 1 0 358 355 351 346 341 337 334 330 328 327 326 326 325 325 325 325 324 323 320 318 316 313 310 307 304 300 296 292 291 290 289 289 289 289 290 290 291 292 293 294 296 298 299 301 303 304
Height
1454 1454 1453 1453 1452 1451 1451 1450 1450 1449 1448 1448 1447 1447 1446 1445 1445 1444 1443 1443 1442 1442 1441 1440 1439 1439 1438 1438 1437 1436 1436 1435 1435 1434 1434 1434 1434 1434 1434 1434 1434 1433 1433 1433 1434 1433 1433 1433 1433 1433 1434 1433 1433 1433 1433 1433 1433 1433 1433 1433 1432 1433 1433 1432 1429 1424 1424 1425 1424 1423 1425 1425 1425 1425 1425 1425 1425 1425 1424 1423 1422 1421 1420 1419 1419
1454 1454 1453 1452 1451 1451 1450 1449 1449 1448 1447 1446 1445 1445 1444 1443 1443 1442 1441 1441 1440 1439 1438 1437 1436 1436 1435 1434 1434 1433 1432 1431 1430 1430 1430 1430 1429 1430 1429 1429 1429 1429 1429 1429 1429 1429 1429 1428 1428 1429 1429 1429 1428 1428 1428 1428 1428 1428 1428 1428 1427 1427 1428 1427 1425 1422 1419 1419 1419 1418 1419 1420 1419 1419 1420 1420 1420 1421 1420 1419 1418 1417 1416 1415 1414
1454 1454 1452 1452 1451 1450 1449 1448 1448 1447 1445 1444 1443 1443 1442 1441 1440 1440 1439 1438 1437 1436 1435 1434 1433 1432 1431 1431 1430 1429 1428 1427 1427 1426 1426 1425 1425 1425 1425 1425 1424 1424 1424 1424 1424 1424 1424 1424 1424 1424 1424 1424 1423 1424 1423 1423 1423 1423 1423 1423 1422 1421 1422 1422 1421 1418 1415 1414 1414 1413 1413 1414 1414 1414 1415 1414 1415 1415 1414 1414 1414 1412 1411 1410 1409
1454 1453 1451 1450 1449 1448 1447 1446 1445 1445 1444 1442 1441 1440 1440 1439 1438 1437 1436 1435 1434 1433 1432 1430 1429 1428 1428 1427 1426 1425 1424 1424 1423 1422 1422 1421 1421 1420 1420 1420 1420 1419 1419 1419 1419 1419 1419 1419 1419 1419 1419 1419 1418 1418 1418 1418 1418 1418 1417 1417 1417 1416 1417 1417 1416 1414 1412 1410 1409 1409 1409 1409 1409 1410 1410 1409 1409 1410 1409 1409 1408 1407 1406 1405 1404
1452 1451 1450 1449 1448 1446 1445 1444 1443 1442 1442 1441 1439 1437 1437 1436 1435 1434 1433 1432 1431 1430 1428 1427 1426 1425 1424 1423 1422 1421 1421 1420 1419 1418 1418 1417 1417 1416 1416 1415 1415 1415 1415 1415 1414 1415 1414 1414 1414 1414 1414 1413 1412 1412 1413 1412 1412 1412 1411 1411 1411 1411 1411 1411 1410 1410 1408 1406 1405 1405 1405 1404 1404 1405 1406 1405 1404 1404 1404 1403 1403 1402 1401 1401 1400
1451 1450 1448 1447 1446 1444 1443 1442 1441 1440 1439 1439 1437 1435 1434 1432 1432 1431 1430 1428 1427 1427 1425 1423 1422 1421 1420 1419 1419 1418 1417 1416 1415 1415 1414 1413 1413 1412 1411 1411 1411 1410 1410 1410 1410 1410 1410 1409 1409 1409 1409 1408 1408 1407 1407 1407 1406 1406 1406 1405 1406 1406 1405 1405 1405 1404 1403 1402 1401 1401 1400 1400 1399 1399 1400 1401 1399 1398 1398 1397 1397 1397 1397 1396 1395
1449 1448 1446 1445 1445 1443 1441 1440 1438 1437 1436 1436 1435 1433 1432 1430 1428 1428 1426 1425 1423 1422 1421 1420 1419 1418 1416 1416 1415 1414 1413 1412 1412 1411 1410 1410 1409 1408 1408 1407 1406 1406 1406 1405 1405 1405 1405 1405 1404 1404 1404 1403 1403 1403 1402 1402 1401 1401 1401 1401 1401 1401 1400 1400 1399 1399 1398 1397 1397 1396 1395 1395 1394 1393 1394 1396 1395 1394 1393 1392 1391 1391 1392 1390 1390
1447 1446 1445 1444 1443 1441 1439 1438 1436 1434 1432 1432 1431 1430 1429 1428 1426 1425 1423 1422 1420 1419 1418 1416 1415 1414 1413 1412 1411 1410 1409 1409 1408 1407 1406 1406 1405 1404 1403 1403 1402 1401 1401 1401 1401 1400 1400 1400 1400 1399 1399 1399 1399 1399 1398 1398 1398 1398 1398 1398 1397 1397 1396 1396 1395 1395 1394 1393 1392 1391 1391 1390 1389 1388 1389 1390 1389 1388 1389 1388 1386 1386 1386 1385 1385
1446 1445 1443 1442 1441 1439 1437 1436 1434 1432 1430 1429 1428 1426 1425 1424 1423 1422 1421 1419 1418 1416 1415 1414 1412 1411 1410 1409 1408 1407 1406 1405 1404 1404 1403 1402 1401 1400 1399 1399 1398 1397 1396 1396 1396 1396 1395 1395 1395 1395 1395 1395 1395 1395 1395 1395 1395 1394 1394 1394 1393 1393 1392 1392 1391 1390 1390 1388 1387 1387 1386 1385 1384 1385 1384 1384 1384 1383 1384 1384 1382 1381 1382 1380 1380
1446 1444 1442 1441 1440 1438 1436 1434 1432 1430 1428 1427 1425 1423 1422 1420 1419 1418 1417 1416 1415 1413 1412 1411 1409 1408 1407 1406 1405 1404 1403 1402 1401 1401 1400 1399 1398 1397 1396 1395 1394 1393 1392 1392 1391 1391 1391 1391 1391 1391 1391 1390 1391 1391 1391 1391 1391 1390 1389 1389 1389 1388 1388 1388 1387 1386 1385 1384 1383 1383 1382 1380 1380 1381 1379 1379 1380 1380 1379 1379 1377 1377 1377 1375 1374
1444 1443 1441 1440 1438 1436 1435 1433 1431 1429 1427 1425 1423 1421 1420 1418 1416 1415 1413 1412 1411 1410 1408 1407 1406 1405 1404 1403 1401 1400 1400 1399 1398 1397 1397 1396 1395 1394 1393 1392 1391 1390 1389 1388 1388 1388 1388 1387 1387 1387 1387 1387 1387 1387 1387 1386 1386 1385 1384 1384 1384 1384 1384 1383 1382 1382 1381 1380 1379 1379 1378 1376 1376 1376 1375 1375 1375 1375 1375 1374 1373 1372 1372 1370 1369
1442 1441 1439 1438 1436 1434 1433 1431 1429 1427 1425 1423 1421 1419 1418 1416 1414 1413 1411 1409 1408 1406 1405 1404 1403 1401 1400 1399 1398 1397 1396 1395 1395 1394 1393 1393 1392 1392 1390 1389 1388 1387 1386 1386 1385 1385 1384 1384 1384 1384 1384 1383 1383 1382 1382 1381 1381 1381 1380 1380 1380 1380 1380 1379 1378 1378 1377 1376 1374 1374 1373 1372 1371 1371 1371 1370 1371 1370 1370 1369 1368 1367 1366 1365 1364
1440 1438 1437 1435 1433 1431 1429 1427 1426 1424 1422 1420 1418 1417 1415 1413 1412 1410 1408 1406 1405 1403 1402 1400 1399 1398 1396 1395 1394 1393 1392 1391 1391 1391 1390 1389 1389 1389 1388 1386 1385 1384 1383 1382 1382 1381 1380 1380 1379 1379 1380 1379 1378 1378 1377 1377 1376 1376 1376 1375 1375 1375 1375 1374 1374 1374 1373 1372 1370 1368 1368 1368 1367 1366 1367 1366 1366 1365 1365 1364 1364 1363 1361 1361 1361
1437 1435 1434 1432 1430 1427 1425 1424 1422 1421 1419 1417 1415 1414 1412 1410 1408 1406 1405 1403 1401 1400 1398 1397 1396 1394 1393 1392 1390 1389 1388 1387 1387 1387 1386 1386 1386 1385 1384 1382 1380 1379 1378 1377 1377 1376 1376 1375 1375 1374 1374 1374 1374 1373 1373 1373 1372 1372 1371 1370 1370 1369 1369 1369 1368 1368 1368 1367 1365 1363 1363 1364 1363 1361 1362 1362 1361 1360 1360 1359 1359 1358 1357 1357 1358
1434 1433 1431 1429 1426 1424 1422 1421 1419 1418 1416 1414 1412 1410 1408 1406 1405 1403 1401 1400 1398 1396 1395 1393 1392 1391 1390 1388 1387 1385 1384 1384 1383 1383 1382 1382 1382 1381 1379 1376 1375 1373 1373 1373 1372 1372 1372 1371 1371 1370 1369 1369 1369 1369 1369 1368 1368 1367 1366 1365 1365 1364 1363 1363 1363 1362 1362 1362 1361 1359 1359 1359 1358 1357 1357 1358 1357 1356 1356 1355 1354 1354 1354 1353 1353
1431 1430 1428 1425 1423 1421 1419 1418 1416 1414 1412 1410 1408 1407 1405 1403 1401 1400 1398 1396 1394 1393 1391 1390 1388 1387 1386 1384 1383 1381 1380 1380 1380 1379 1378 1378 1377 1376 1373 1371 1370 1369 1368 1368 1367 1367 1367 1367 1366 1366 1365 1365 1365 1364 1365 1364 1364 1362 1361 1360 1360 1359 1358 1358 1358 1358 1357 1357 1356 1355 1355 1354 1354 1353 1353 1353 1352 1352 1351 1350 1350 1350 1349 1348 1347
1429 1427 1424 1422 1420 1419 1417 1415 1413 1411 1409 1407 1405 1403 1402 1399 1398 1396 1394 1392 1390 1389 1387 1386 1385 1383 1382 1381 1379 1377 1376 1376 1376 1375 1374 1374 1373 1371 1369 1367 1366 1364 1363 1363 1363 1362 1362 1362 1362 1362 1362 1361 1360 1360 1361 1361 1360 1359 1357 1356 1355 1354 1353 1353 1353 1352 1352 1351 1351 1350 1349 1349 1349 1348 1348 1348 1348 1347 1346 1345 1345 1345 1344 1343 1343
1426 1424 1421 1419 1418 1416 1414 1412 1409 1407 1405 1403 1401 1399 1398 1396 1394 1393 1391 1389 1387 1386 1384 1382 1381 1380 1379 1377 1376 1374 1372 1372 1372 1371 1370 1370 1369 1368 1366 1364 1362 1361 1360 1359 1359 1359 1359 1359 1360 1360 1359 1358 1357 1357 1358 1358 1357 1355 1354 1353 1351 1350 1349 1349 1348 1347 1346 1345 1344 1343 1343 1343 1343 1342 1342 1342 1342 1342 1342 1341 1341 1341 1340 1339 1339
1423 1421 1418 1417 1415 1412 1410 1408 1406 1404 1402 1399 1398 1396 1394 1392 1390 1389 1387 1385 1384 1382 1381 1379 1377 1376 1375 1374 1373 1371 1369 1368 1368 1367 1366 1366 1366 1365 1363 1361 1359 1358 1357 1356 1355 1356 1356 1356 1357 1357 1356 1354 1354 1355 1355 1355 1354 1353 1352 1350 1348 1347 1347 1346 1344 1342 1341 1340 1339 1339 1338 1338 1338 1338 1338 1338 1338 1338 1338 1337 1337 1337 1335 1335 1335
1420 1418 1415 1413 1411 1409 1407 1405 1402 1400 1398 1396 1394 1392 1390 1388 1387 1385 1384 1382 1380 1378 1377 1376 1374 1372 1372 1370 1369 1368 1366 1365 1364 1364 1363 1363 1363 1362 1361 1358 1356 1355 1354 1353 1353 1353 1353 1353 1353 1353 1352 1352 1352 1352 1351 1352 1352 1351 1349 1346 1345 1345 1345 1343 1340 1339 1338 1337 1336 1336 1335 1334 1334 1334 1334 1333 1333 1334 1334 1334 1333 1333 1332 1331 1331
1417 1414 1412 1410 1408 1405 1403 1401 1399 1397 1394 1392 1390 1389 1387 1385 1384 1382 1380 1378 1377 1375 1374 1372 1370 1369 1368 1367 1365 1364 1363 1362 1361 1360 1360 1359 1360 1360 1358 1356 1354 1353 1351 1351 1350 1350 1351 1351 1350 1349 1349 1349 1348 1347 1348 1350 1350 1347 1344 1344 1344 1343 1341 1338 1336 1335 1335 1334 1333 1332 1332 1331 1331 1331 1331 1330 1330 1330 1330 1330 1330 1329 1328 1328 1327
1413 1410 1408 1406 1403 1401 1399 1397 1395 1393 1391 1389 1387 1385 1384 1382 1381 1379 1377 1375 1374 1372 1370 1369 1367 1365 1364 1363 1362 1361 1360 1360 1358 1358 1357 1357 1357 1357 1355 1353 1352 1351 1350 1349 1348 1348 1348 1347 1347 1346 1346 1345 1345 1345 1347 1347 1345 1342 1341 1342 1341 1339 1337 1334 1333 1332 1331 1330 1330 1329 1328 1328 1328 1328 1328 1327 1327 1327 1327 1327 1326 1326 1325 1325 1324
1409 1406 1404 1402 1399 1397 1395 1393 1392 1390 1388 1386 1384 1382 1381 1379 1377 1376 1374 1372 1370 1369 1367 1366 1364 1362 1361 1360 1360 1359 1358 1358 1357 1356 1356 1355 1354 1353 1353 1351 1350 1350 1348 1346 1345 1345 1345 1344 1344 1343 1343 1343 1343 1344 1344 1342 1340 1339 1339 1338 1337 1335 1333 1332 1330 1329 1328 1327 1326 1325 1324 1324 1324 1324 1324 1324 1324 1324 1324 1323 1322 1322 1321 1321 1321
1405 1402 1400 1398 1395 1394 1392 1390 1389 1387 1385 1383 1381 1379 1378 1376 1375 1373 1371 1370 1368 1366 1365 1363 1362 1360 1359 1358 1357 1357 1356 1355 1355 1354 1354 1353 1351 1351 1350 1349 1348 1347 1346 1344 1343 1343 1342 1342 1342 1342 1341 1341 1341 1340 1339 1338 1337 1336 1335 1334 1333 1332 1330 1328 1327 1326 1324 1323 1322 1321 1320 1320 1320 1320 1320 1320 1320 1320 1320 1319 1318 1318 1317 1316 1316
1402 1399 1397 1394 1392 1390 1389 1387 1385 1384 1382 1381 1379 1377 1375 1373 1372 1370 1369 1367 1366 1364 1362 1361 1360 1358 1357 1355 1354 1354 1353 1353 1352 1351 1351 1350 1349 1348 1348 1346 1346 1345 1344 1342 1341 1341 1340 1340 1340 1339 1338 1338 1337 1336 1336 1335 1334 1333 1332 1331 1329 1328 1326 1325 1323 1322 1320 1318 1318 1317 1316 1316 1317 1316 1316 1316 1316 1315 1315 1315 1314 1313 1313 1312 1311
1398 1396 1394 1391 1389 1387 1385 1384 1382 1381 1380 1378 1377 1375 1373 1371 1369 1368 1366 1365 1363 1362 1360 1359 1357 1356 1354 1353 1352 1351 1350 1350 1349 1349 1348 1348 1347 1347 1346 1344 1343 1342 1341 1340 1338 1338 1338 1337 1337 1336 1335 1335 1334 1334 1333 1331 1330 1329 1328 1327 1325 1324 1322 1321 1319 1318 1316 1315 1314 1313 1313 1312 1312 1312 1312 1312 1311 1311 1311 1310 1309 1309 1308 1308 1306
1395 1393 1391 1389 1386 1385 1383 1381 1380 1379 1377 1375 1373 1372 1370 1369 1367 1365 1364 1362 1361 1359 1358 1356 1355 1353 1352 1350 1349 1348 1347 1346 1346 1346 1346 1345 1344 1344 1343 1342 1341 1340 1339 1337 1336 1336 1335 1335 1334 1333 1333 1332 1332 1331 1329 1328 1326 1325 1324 1323 1321 1320 1319 1317 1316 1315 1313 1312 1311 1310 1309 1309 1308 1308 1308 1308 1307 1307 1307 1307 1305 1304 1304 1304 1302
1392 1390 1388 1386 1384 1382 1381 1379 1377 1375 1373 1372 1370 1368 1367 1366 1364 1363 1362 1360 1358 1356 1355 1353 1352 1351 1349 1348 1346 1345 1344 1343 1343 1343 1343 1342 1341 1340 1340 1340 1339 1338 1336 1335 1333 1333 1333 1332 1332 1331 1330 1329 1328 1327 1326 1324 1323 1321 1320 1319 1318 1317 1315 1314 1313 1312 1311 1310 1308 1307 1306 1306 1305 1305 1304 1304 1303 1303 1303 1303 1302 1301 1300 1300 1298
1390 1387 1385 1383 1381 1379 1378 1376 1374 1371 1369 1368 1366 1365 1365 1364 1362 1360 1359 1358 1356 1354 1353 1351 1350 1349 1347 1346 1344 1343 1341 1340 1340 1340 1339 1339 1338 1338 1338 1337 1337 1335 1333 1331 1330 1330 1330 1330 1329 1328 1327 1326 1324 1323 1322 1320 1319 1318 1317 1316 1315 1314 1313 1312 1311 1310 1308 1307 1306 1304 1303 1303 1302 1302 1301 1300 1300 1300 1300 1300 1299 1298 1297 1296 1295
1386 1384 1382 1380 1378 1376 1374 1372 1370 1368 1366 1364 1362 1361 1361 1360 1359 1358 1356 1355 1354 1353 1351 1350 1348 1347 1345 1344 1343 1341 1339 1337 1337 1336 1336 1336 1336 1335 1335 1335 1334 1333 1330 1328 1328 1328 1327 1327 1326 1325 1324 1323 1321 1320 1319 1317 1316 1315 1314 1313 1312 1311 1310 1309 1308 1307 1306 1304 1303 1302 1301 1300 1299 1299 1298 1297 1297 1297 1297 1296 1296 1295 1294 1293 1292
1383 1381 1379 1377 1375 1373 1371 1369 1367 1365 1363 1362 1360 1358 1357 1356 1356 1355 1353 1352 1351 1350 1349 1347 1346 1345 1343 1341 1340 1339 1336 1335 1334 1333 1332 1332 1332 1333 1333 1331 1331 1330 1328 1325 1325 1325 1325 1324 1323 1323 1321 1320 1318 1317 1316 1315 1313 1312 1311 1310 1310 1309 1308 1307 1306 1305 1303 1302 1301 1300 1299 1298 1297 1297 1296 1295 1294 1294 1293 1293 1292 1292 1291 1290 1289
1381 1378 1376 1374 1372 1370 1368 1366 1364 1362 1361 1359 1358 1356 1354 1352 1350 1350 1350 1349 1347 1346 1345 1344 1343 1342 1340 1339 1337 1335 1333 1331 1330 1330 1330 1330 1330 1330 1329 1328 1328 1327 1325 1323 1323 1323 1322 1322 1321 1320 1319 1317 1316 1315 1313 1312 1311 1310 1309 1308 1307 1306 1306 1305 1304 1303 1302 1301 1300 1298 1298 1297 1296 1295 1294 1293 1292 1291 1290 1290 1289 1288 1287 1287 1286
1379 1376 1374 1371 1370 1368 1366 1364 1362 1361 1359 1358 1356 1354 1353 1350 1348 1346 1345 1344 1344 1343 1342 1341 1339 1338 1337 1336 1334 1332 1330 1329 1328 1328 1327 1327 1327 1327 1326 1325 1324 1324 1323 1322 1321 1320 1320 1319 1318 1317 1316 1314 1313 1312 1311 1310 1309 1308 1307 1305 1304 1303 1302 1302 1301 1300 1300 1299 1298 1297 1296 1295 1294 1293 1292 1291 1290 1289 1287 1286 1286 1285 1285 1284 1283
1377 1375 1372 1370 1368 1366 1365 1363 1361 1359 1357 1356 1354 1352 1351 1349 1347 1344 1342 1341 1340 1339 1338 1337 1336 1335 1333 1332 1330 1329 1328 1327 1326 1325 1324 1324 1325 1325 1323 1322 1321 1321 1321 1320 1319 1318 1317 1316 1315 1314 1313 1312 1310 1309 1308 1307 1306 1305 1304 1303 1301 1300 1299 1299 1298 1298 1297 1297 1296 1295 1294 1293 1292 1291 1290 1288 1287 1286 1284 1283 1282 1282 1282 1281 1280
1375 1373 1370 1369 1367 1365 1363 1361 1359 1357 1355 1354 1352 1351 1349 1347 1345 1344 1342 1340 1338 1336 1335 1335 1334 1332 1331 1329 1328 1327 1326 1324 1323 1322 1322 1322 1323 1322 1320 1319 1319 1319 1318 1318 1317 1316 1315 1314 1312 1312 1310 1309 1308 1307 1306 1305 1304 1302 1301 1300 1299 1297 1296 1296 1295 1295 1295 1294 1294 1293 1292 1291 1290 1289 1288 1286 1284 1282 1281 1279 1279 1278 1278 1278 1278
1373 1370 1368 1367 1366 1364 1362 1360 1357 1356 1354 1352 1350 1349 1347 1346 1344 1343 1341 1339 1337 1336 1334 1333 1331 1330 1329 1328 1327 1325 1323 1322 1321 1321 1320 1321 1321 1320 1318 1317 1316 1316 1315 1315 1314 1313 1312 1311 1310 1309 1308 1307 1306 1305 1304 1302 1301 1300 1299 1297 1296 1295 1294 1293 1292 1292 1291 1291 1291 1291 1290 1289 1288 1287 1286 1284 1282 1280 1278 1277 1276 1275 1275 1276 1276
1371 1369 1367 1366 1364 1362 1360 1358 1356 1355 1353 1351 1349 1347 1346 1344 1343 1341 1340 1338 1336 1335 1333 1331 1330 1328 1327 1326 1325 1323 1321 1320 1319 1319 1319 1319 1318 1317 1316 1315 1314 1314 1313 1313 1312 1311 1310 1309 1308 1307 1306 1304 1303 1302 1301 1300 1299 1297 1296 1295 1294 1293 1291 1291 1290 1289 1289 1289 1288 1288 1288 1287 1286 1285 1284 1281 1280 1278 1276 1275 1274 1274 1274 1274 1274
1369 1368 1366 1365 1363 1361 1359 1357 1355 1353 1351 1350 1348 1346 1344 1343 1341 1340 1338 1337 1335 1334 1332 1330 1329 1327 1325 1324 1323 1321 1320 1318 1318 1317 1316 1316 1315 1315 1314 1314 1313 1312 1312 1311 1310 1309 1308 1307 1306 1305 1304 1302 1301 1300 1299 1297 1296 1295 1294 1293 1292 1291 1290 1289 1288 1287 1287 1286 1286 1286 1285 1285 1284 1283 1282 1280 1278 1277 1275 1274 1273 1273 1272 1272 1272
1368 1367 1365 1363 1362 1360 1358 1356 1354 1352 1350 1349 1347 1345 1343 1341 1340 1339 1337 1335 1334 1332 1331 1329 1328 1326 1325 1323 1321 1320 1318 1317 1316 1316 1315 1314 1314 1314 1313 1312 1312 1311 1310 1309 1308 1307 1306 1305 1304 1303 1302 1300 1299 1298 1296 1295 1294 1293 1292 1291 1289 1288 1288 1287 1286 1285 1284 1284 1283 1283 1283 1282 1282 1281 1280 1279 1277 1276 1274 1273 1273 1272 1272 1271 1271
1367 1365 1364 1362 1360 1359 1357 1355 1353 1351 1349 1347 1345 1344 1342 1340 1339 1337 1336 1334 1332 1331 1330 1328 1327 1326 1324 1323 1321 1320 1318 1316 1316 1315 1314 1313 1313 1313 1312 1311 1311 1310 1308 1307 1306 1305 1304 1303 1302 1301 1299 1298 1297 1296 1294 1293 1292 1291 1290 1289 1287 1286 1286 1285 1284 1283 1282 1282 1281 1281 1281 1280 1280 1279 1278 1277 1276 1275 1273 1272 1272 1271 1271 1271 1270
1367 1365 1363 1361 1359 1358 1356 1354 1353 1351 1349 1347 1345 1343 1341 1340 1338 1336 1334 1333 1332 1330 1329 1328 1326 1325 1323 1322 1321 1320 1318 1316 1315 1314 1313 1312 1312 1311 1311 1310 1309 1308 1307 1305 1304 1303 1302 1300 1299 1298 1297 1296 1295 1294 1292 1291 1290 1289 1288 1287 1286 1285 1284 1283 1282 1281 1281 1280 1279 1279 1278 1278 1278 1277 1276 1276 1275 1274 1273 1272 1271 1270 1270 1270 1269
1366 1364 1363 1361 1359 1357 1355 1354 1352 1350 1348 1346 1344 1343 1341 1339 1337 1335 1334 1332 1331 1330 1328 1327 1325 1324 1323 1321 1320 1319 1317 1316 1314 1313 1312 1311 1310 1310 1309 1308 1307 1306 1305 1304 1302 1301 1299 1298 1297 1296 1295 1294 1293 1291 1290 1289 1288 1287 1286 1285 1284 1283 1282 1281 1281 1280 1279 1278 1277 1277 1276 1276 1276 1275 1275 1274 1274 1273 1272 1271 1270 1270 1269 1268 1268
1366 1365 1363 1360 1359 1357 1355 1353 1351 1349 1347 1346 1344 1342 1340 1339 1337 1335 1333 1332 1331 1329 1328 1326 1325 1323 1322 1320 1319 1317 1316 1315 1313 1312 1311 1310 1309 1308 1307 1306 1305 1304 1303 1302 1301 1299 1297 1296 1295 1294 1293 1292 1291 1289 1288 1287 1286 1285 1284 1283 1282 1281 1281 1280 1279 1278 1277 1277 1276 1275 1275 1274 1274 1274 1273 1273 1272 1272 1271 1270 1269 1269 1268 1267 1266
1366 1364 1362 1360 1359 1357 1355 1353 1351 1349 1347 1345 1343 1342 1340 1338 1336 1335 1333 1332 1330 1329 1327 1326 1324 1322 1321 1319 1318 1316 1315 1314 1312 1311 1310 1309 1307 1306 1305 1304 1303 1302 1301 1300 1298 1297 1296 1294 1293 1292 1291 1290 1289 1288 1287 1286 1285 1284 1283 1282 1281 1280 1279 1278 1278 1277 1276 1275 1274 1274 1273 1273 1272 1272 1272 1271 1271 1270 1270 1269 1268 1267 1267 1266 1265
1366 1364 1362 1360 1359 1357 1355 1353 1351 1349 1347 1345 1343 1341 1340 1338 1336 1334 1333 1331 1330 1328 1327 1325 1323 1322 1320 1318 1317 1315 1314 1313 1311 1310 1309 1307 1306 1305 1304 1302 1301 1300 1299 1298 1297 1295 1294 1293 1291 1290 1289 1288 1287 1287 1286 1285 1284 1283 1282 1281 1280 1279 1278 1277 1276 1275 1275 1274 1273 1272 1271 1271 1271 1270 1270 1270 1269 1269 1268 1267 1267 1266 1265 1264 1263
1366 1364 1362 1360 1359 1357 1355 1353 1351 1349 1347 1345 1343 1341 1339 1337 1336 1334 1332 1331 1329 1328 1326 1325 1323 1321 1319 1318 1316 1315 1313 1312 1310 1309 1308 1306 1305 1304 1302 1301 1300 1299 1297 1296 1295 1294 1293 1292 1290 1289 1288 1287 1286 1285 1285 1284 1283 1282 1281 1280 1279 1277 1277 1276 1275 1274 1273 1272 1271 1271 1270 1269 1269 1269 1268 1268 1268 1267 1266 1266 1265 1264 1263 1263 1262
1366 1364 1362 1360 1359 1357 1355 1353 1351 1349 1347 1345 1343 1341 1339 1337 1336 1334 1332 1331 1329 1327 1326 1324 1322 1320 1319 1317 1316 1314 1313 1311 1310 1308 1307 1305 1304 1303 1301 1300 1299 1298 1296 1295 1294 1293 1292 1291 1290 1288 1287 1286 1285 1284 1283 1282 1282 1280 1279 1278 1277 1276 1275 1274 1273 1272 1272 1271 1270 1269 1268 1268 1267 1267 1267 1266 1266 1265 1264 1264 1263 1263 1262 1261 1260
1366 1364 1362 1361 1359 1357 1355 1353 1351 1349 1347 1345 1343 1341 1339 1338 1336 1334 1332 1331 1329 1327 1325 1324 1322 1320 1319 1317 1315 1314 1312 1311 1309 1308 1306 1305 1304 1302 1301 1300 1298 1297 1296 1295 1294 1293 1291 1290 1289 1288 1287 1285 1284 1283 1282 1281 1280 1279 1278 1277 1275 1274 1273 1272 1271 1271 1270 1269 1268 1268 1267 1266 1266 1265 1265 1264 1264 1263 1262 1262 1261 1261 1260 1259 1258
1366 1364 1362 1361 1359 1357 1355 1353 1351 1349 1347 1345 1343 1341 1339 1338 1336 1334 1332 1331 1329 1327 1325 1323 1322 1320 1318 1317 1315 1313 1312 1310 1309 1308 1306 1305 1303 1302 1301 1299 1298 1297 1295 1294 1293 1292 1291 1289 1288 1287 1285 1284 1283 1281 1280 1279 1278 1277 1275 1274 1273 1272 1271 1270 1270 1269 1268 1267 1267 1266 1265 1265 1264 1264 1263 1263 1262 1261 1261 1260 1259 1258 1258 1257 1256
1366 1365 1363 1361 1359 1357 1356 1354 1352 1350 1348 1346 1344 1342 1340 1338 1336 1334 1333 1331 1329 1327 1325 1323 1322 1320 1318 1317 1315 1313 1312 1311 1309 1308 1306 1305 1303 1302 1301 1299 1298 1297 1295 1294 1293 1291 1290 1288 1287 1285 1284 1282 1281 1280 1278 1277 1276 1275 1273 1272 1271 1270 1269 1268 1268 1267 1266 1265 1265 1264 1264 1263 1262 1262 1261 1261 1260 1259 1259 1258 1257 1256 1256 1255 1254
1367 1366 1364 1362 1360 1358 1356 1354 1352 1350 1348 1346 1344 1342 1340 1338 1336 1334 1333 1331 1329 1327 1325 1324 1322 1320 1319 1317 1316 1314 1313 1311 1310 1308 1307 1305 1304 1302 1301 1299 1298 1296 1295 1293 1292 1290 1289 1287 1285 1284 1282 1281 1280 1278 1277 1275 1274 1273 1272 1270 1269 1268 1267 1267 1266 1265 1264 1263 1263 1262 1262 1261 1260 1260 1259 1259 1258 1257 1257 1256 1255 1254 1254 1253 1252